DLH903 KLAX-EDDF

Flight info

Callsign DLH903
Flight time N/A
Altitude 35000
Route OSHNN1 BEALE Q842 WINEN DCT EHK DCT OCS DCT CZI DCT RECAP DCT DIK/N0470F370 DCT KOBID DCT 56N090W 61N080W 6330N07000W DCT MUSVA/M080F390 DCT CLAVY DCT 64N050W 6330N04000W 6230N03000W 6030N02000W DCT ERAKA/N0463F390 DCT ETSOM DCT ERSON DCT ROBEM/N0459F410 DCT ERLOT DCT BAZNA DCT ROKAN DCT TOPPA DCT SOGPO DCT DIXAT DIXAT1D
Aircraft A343/H-SDE2E3FGHIJ4J5M1RWXY/LB1D1

Departure

Time 2026-04-26 05:45
Airport Los Angeles International Airport (KLAX)

Arrival

Time N/A
Airport Frankfurt Main Airport (EDDF)
Time Latitude Longitude Altitude Speed Heading
2026-04-26 05:16 33.94023 -118.40923 100 ft 0 kts 263°
2026-04-26 05:29 33.94024 -118.40921 99 ft 2 kts 263°
2026-04-26 05:29 33.94026 -118.40894 98 ft 2 kts 263°
2026-04-26 05:30 33.94032 -118.40865 96 ft 4 kts 245°
2026-04-26 05:30 33.94046 -118.40840 98 ft 4 kts 211°
2026-04-26 05:30 33.94069 -118.40832 97 ft 2 kts 173°
2026-04-26 05:30 33.94055 -118.40830 97 ft 4 kts 173°
2026-04-26 05:31 33.94029 -118.40826 97 ft 4 kts 173°
2026-04-26 05:31 33.94003 -118.40822 97 ft 2 kts 173°
2026-04-26 05:31 33.94002 -118.40822 99 ft 0 kts 173°
2026-04-26 05:34 33.93993 -118.40821 100 ft 2 kts 173°
2026-04-26 05:34 33.93979 -118.40819 100 ft 2 kts 173°
2026-04-26 05:35 33.93963 -118.40817 99 ft 2 kts 173°
2026-04-26 05:35 33.93922 -118.40809 99 ft 11 kts 164°
2026-04-26 05:35 33.93834 -118.40733 102 ft 19 kts 136°
2026-04-26 05:35 33.93817 -118.40595 98 ft 17 kts 84°
2026-04-26 05:36 33.93830 -118.40458 99 ft 16 kts 83°
2026-04-26 05:36 33.93843 -118.40328 100 ft 15 kts 83°
2026-04-26 05:36 33.93857 -118.40203 100 ft 15 kts 83°
2026-04-26 05:36 33.93869 -118.40083 101 ft 14 kts 83°
2026-04-26 05:37 33.93882 -118.39966 100 ft 14 kts 82°
2026-04-26 05:37 33.93895 -118.39849 101 ft 14 kts 83°
2026-04-26 05:37 33.93906 -118.39723 99 ft 17 kts 83°
2026-04-26 05:37 33.93921 -118.39568 99 ft 20 kts 83°
2026-04-26 05:38 33.93939 -118.39386 101 ft 24 kts 83°
2026-04-26 05:38 33.93961 -118.39176 99 ft 26 kts 83°
2026-04-26 05:38 33.93984 -118.38951 99 ft 27 kts 83°
2026-04-26 05:38 33.94007 -118.38727 99 ft 26 kts 83°
2026-04-26 05:39 33.94029 -118.38518 99 ft 25 kts 83°
2026-04-26 05:39 33.94044 -118.38378 101 ft 7 kts 82°
2026-04-26 05:39 33.94050 -118.38319 100 ft 7 kts 82°
2026-04-26 05:39 33.94057 -118.38261 101 ft 7 kts 82°
2026-04-26 05:40 33.94064 -118.38193 98 ft 9 kts 83°
2026-04-26 05:40 33.94072 -118.38117 99 ft 7 kts 83°
2026-04-26 05:40 33.94074 -118.38092 97 ft 3 kts 83°
2026-04-26 05:40 33.94077 -118.38064 97 ft 4 kts 83°
2026-04-26 05:41 33.94080 -118.38034 97 ft 4 kts 84°
2026-04-26 05:41 33.94076 -118.38024 97 ft 0 kts 117°
2026-04-26 05:41 33.94069 -118.38016 98 ft 6 kts 136°
2026-04-26 05:42 33.94000 -118.38007 98 ft 11 kts 210°
2026-04-26 05:42 33.93978 -118.38079 97 ft 8 kts 262°
2026-04-26 05:42 33.93977 -118.38091 98 ft 0 kts 262°
2026-04-26 05:43 33.93967 -118.38186 102 ft 32 kts 263°
2026-04-26 05:44 33.93940 -118.38454 106 ft 63 kts 263°
2026-04-26 05:44 33.93870 -118.39145 100 ft 104 kts 262°
2026-04-26 05:44 33.93767 -118.40150 103 ft 137 kts 263°
2026-04-26 05:44 33.93634 -118.41388 233 ft 154 kts 262°
2026-04-26 05:45 33.93444 -118.42626 737 ft 148 kts 257°
2026-04-26 05:45 33.93297 -118.43907 1013 ft 160 kts 263°
2026-04-26 05:45 33.93174 -118.45259 1392 ft 169 kts 260°
2026-04-26 05:45 33.92677 -118.46630 1578 ft 191 kts 237°
2026-04-26 05:46 33.91832 -118.47973 1821 ft 213 kts 233°
2026-04-26 05:46 33.90846 -118.49448 2118 ft 235 kts 232°
2026-04-26 05:46 33.89778 -118.50986 2752 ft 243 kts 231°
2026-04-26 05:46 33.88664 -118.52536 3489 ft 246 kts 231°
2026-04-26 05:47 33.87538 -118.54091 4250 ft 249 kts 229°
2026-04-26 05:47 33.86171 -118.55394 4996 ft 255 kts 210°
2026-04-26 05:47 33.84442 -118.55931 5748 ft 263 kts 184°
2026-04-26 05:47 33.82613 -118.55639 6511 ft 268 kts 171°
2026-04-26 05:48 33.80793 -118.55126 7226 ft 270 kts 171°
2026-04-26 05:48 33.78957 -118.54599 7904 ft 272 kts 170°
2026-04-26 05:48 33.77138 -118.54089 8586 ft 273 kts 171°
2026-04-26 05:48 33.75276 -118.53579 9271 ft 275 kts 171°
2026-04-26 05:49 33.73405 -118.53068 9948 ft 277 kts 171°
2026-04-26 05:49 33.69770 -118.51047 10562 ft 317 kts 135°
2026-04-26 05:49 33.68626 -118.48691 10799 ft 338 kts 114°
2026-04-26 05:50 33.67822 -118.45972 11038 ft 354 kts 111°
2026-04-26 05:50 33.67018 -118.43105 11304 ft 368 kts 111°
2026-04-26 05:50 33.66172 -118.40138 11611 ft 380 kts 112°
2026-04-26 05:50 33.65284 -118.37098 12041 ft 388 kts 112°
2026-04-26 05:51 33.64573 -118.33942 12555 ft 396 kts 99°
2026-04-26 05:51 33.64424 -118.30609 13143 ft 402 kts 91°
2026-04-26 05:51 33.64439 -118.27235 13651 ft 407 kts 91°
2026-04-26 05:51 33.64461 -118.23816 14113 ft 412 kts 90°
2026-04-26 05:52 33.64787 -118.20384 14557 ft 418 kts 75°
2026-04-26 05:52 33.65995 -118.17201 15006 ft 421 kts 53°
2026-04-26 05:52 33.68014 -118.14664 15466 ft 421 kts 35°
2026-04-26 05:52 33.70334 -118.12585 15958 ft 423 kts 32°
2026-04-26 05:53 33.72729 -118.10504 16437 ft 427 kts 33°
2026-04-26 05:53 33.75144 -118.08384 16874 ft 432 kts 33°
2026-04-26 05:53 33.77574 -118.06228 17341 ft 435 kts 33°
2026-04-26 05:53 33.80016 -118.04050 17777 ft 440 kts 33°
2026-04-26 05:54 33.82490 -118.01835 18244 ft 444 kts 33°
2026-04-26 05:54 33.84972 -117.99607 18712 ft 447 kts 33°
2026-04-26 05:54 33.87473 -117.97359 19169 ft 450 kts 33°
2026-04-26 05:54 33.89986 -117.95097 19650 ft 452 kts 33°
2026-04-26 05:55 33.92514 -117.92820 20086 ft 455 kts 33°
2026-04-26 05:55 33.95041 -117.90512 20486 ft 458 kts 33°
2026-04-26 05:55 33.97591 -117.88179 20901 ft 462 kts 33°
2026-04-26 05:55 34.00167 -117.85817 21306 ft 465 kts 33°
2026-04-26 05:56 34.02749 -117.83448 21720 ft 468 kts 33°
2026-04-26 05:56 34.05321 -117.81089 22102 ft 471 kts 33°